Regional Weather Roundup
Issued by NWS

Home | Current Version | Previous Version | Text Only | Print | Product List | Glossary On
Versions: 1 2 3 4 5 6 7 8 9 10 11 12 13 14 15 16 17 18 19 20 21 22 23 24 25 26 27 28 29 30 31 32 33 34 35 36 37 38 39 40 41 42 43 44 45 46 47 48 49
000
ASUS42 KFFC 031903
RWRGA
WEATHER ROUNDUP FOR GEORGIA
NATIONAL WEATHER SERVICE PEACHTREE CITY GA
300 PM EDT WED JUN 03 2015

NOTE: "FAIR" INDICATES FEW OR NO CLOUDS BELOW 12,000 FEET WITH NO
SIGNIFICANT WEATHER AND/OR OBSTRUCTIONS TO VISIBILITY.

* = USE WITH CAUTION. THE STATIONS MARKED WITH AN ASTERISK MAY NOT
REPORT WEATHER SUCH AS PRECIPITATION, FOG, OR THUNDER AND ARE NOT
QUALITY CONTROLLED BY NWS.

THE REMARK "TC" DENOTES TEMPERATURE READING IN DEGREES CELSIUS.

GAZ001>058-032000-
NORTH GEORGIA

CITY           SKY/WX    TMP DP  RH WIND       PRES   REMARKS
ATLANTA        PTSUNNY   77  64  64 SE13      29.96F
ATHENS         CLOUDY    79  62  56 E7        29.99F
CHAMBLEE       PTSUNNY   78  64  61 VRB7      29.96F
PEACHTREE CITY MOSUNNY   76  68  76 SE9       29.96F
ROME           MOSUNNY   79  65  62 NE5       29.94F
WEST ATLANTA   LGT RAIN  78  64  61 E9        29.95F
GAINESVILLE    PTSUNNY   75  63  66 SE10G20   30.01F
CARTERSVILLE   CLOUDY    76  63  64 SE7       29.96S


CITY           SKY/WX    TMP DP  RH WIND       PRES   REMARKS
DALTON*        MOSUNNY   77  64  65 CALM      29.96F
LAWRENCEVILLE* PTSUNNY   75  61  60 E12       29.97F
MARIETTA       PTSUNNY   77  65  65 E9        29.96F THUNDER
KENNESAW*      PTSUNNY   75  64  69 E9        29.96F
BLAIRSVILLE*     N/A     72  37  27 SE5       30.02F
$$

GAZ059>098-102>109-032000-
CENTRAL GEORGIA

CITY           SKY/WX    TMP DP  RH WIND       PRES   REMARKS
AUGUSTA-BUSH   PTSUNNY   81  65  58 E6        29.95F
AUGUSTA-DANIEL PTSUNNY   81  64  56 NE5       29.98F
COLUMBUS       LGT RAIN  79  70  74 E3        29.92S
MACON          PTSUNNY   80  62  54 NE16G24   29.93F THUNDER
ROBINS AFB     PTSUNNY   77  64  65 NE14      29.92F THUNDER


CITY           SKY/WX    TMP DP  RH WIND       PRES   REMARKS
LAGRANGE*      PTSUNNY   85  73  67 SE6       29.93F HX  91
SYLVANIA*      PTSUNNY   81  71  71 E10       29.95F
MILLEDGEVILLE* PTSUNNY   79  68  69 E3        29.96F
$$

GAZ099>101-110>166-032000-
SOUTH GEORGIA

CITY           SKY/WX    TMP DP  RH WIND       PRES   REMARKS
SAVANNAH       TSTM      70  64  83 S7        29.98R FOG
VALDOSTA       CLOUDY    84  66  54 CALM      29.92F
ALMA           PTSUNNY   84  66  54 VRB3      29.93F
FT STEWART     LGT RAIN  73  67  81 E9        29.93R
ALBANY         PTSUNNY   88  66  48 S8        29.93F HX  90
HUNTER AFB     TSTM      76  69  80 N8        29.96R
MOODY AFB      MOSUNNY   86  65  49 W5        29.91F
BRUNSWICK      CLOUDY    77  72  83 E5        29.95F


CITY           SKY/WX    TMP DP  RH WIND       PRES   REMARKS
BAINBRIDGE*    SUNNY     91  68  46 CALM      29.91F HX  95
MOULTRIE*      MOSUNNY   88  64  45 S8        29.93F
VIDALIA*       PTSUNNY   79  70  73 SW7       29.95R HAZE
WAYCROSS*      CLOUDY    85  69  59 CALM      29.92F
DOUGLAS*       MOSUNNY   88  66  48 W5        29.94S HX  90
$$



USA.gov is the U.S. government's official web portal to all federal, state and local government web resources and services.